Saranac Lake, NY

3:28 AM EDT on June 26, 2017 (GMT -0400)
Adirondack Regional

Weather History for KSLK - October, 2012

Change the Weather History Date:

Saturday, October 27, 2012

  Actual Average Record
Temperature  
Mean Temperature 54 °F 39 °F  
Max Temperature 65 °F 50 °F 70 °F (1963)
Min Temperature 42 °F 28 °F 13 °F (1990)
Degree Days  
Heating Degree Days 11 26  
Month to date heating degree days 517 600  
Since 1 July heating degree days 1031 1185  
Cooling Degree Days 0 0  
Month to date cooling degree days 0 0  
Year to date cooling degree days 155 114  
Growing Degree Days 3 (Base 50)    
Moisture  
Dew Point 48 °F    
Average Humidity 82    
Maximum Humidity 100    
Minimum Humidity 63    
Precipitation  
Precipitation 0.00 in 0.14 in 1.27 in (2003)
Month to date precipitation 3.96 3.52  
Year to date precipitation 29.58 31.35  
Sea Level Pressure  
Sea Level Pressure 30.03 in    
Wind  
Wind Speed 2 mph (SE)    
Max Wind Speed 15 mph    
Max Gust Speed 20 mph    
Visibility 5 miles    
Events Fog    
T = Trace of Precipitation, MM = Missing Value Source: NWS Daily Summary

Daily Weather History Graph

Daily Weather History Graph

Search for Another Location

Airport or City:

Trip Planner

Search our weather history database for the weather conditions in past years. The results will help you decide how hot, cold, wet, or windy it might be!

Date:

Astronomy

Oct. 27, 2012 Rise Set
Actual Time 7:28 AM EDT 5:52 PM EDT
Civil Twilight 6:58 AM EDT 6:22 PM EDT
Nautical Twilight 6:23 AM EDT 6:56 PM EDT
Astronomical Twilight 5:50 AM EDT 7:30 PM EDT
Moon 4:39 PM EDT (10/27) 5:17 AM EDT (10/27)
Length of Visible Light 11h 24m
Length of Day
10h 24m
Waxing Gibbous, 96% of the Moon is Illuminated
Oct 27
Waxing Gibbous
Oct 29
Full
Nov 6
Last Quarter
Nov 13
New
Nov 20
First Quarter

Hourly Weather History & Observations

Time (EDT) Temp. Dew Point Humidity Pressure Visibility Wind Dir Wind Speed Gust Speed Precip Events Conditions
1:23 AM 51.8 °F 50.0 °F 94% 30.10 in 7.0 mi SW 3.5 mph - N/A   Overcast
1:51 AM 50.0 °F 48.9 °F 96% 30.09 in 5.0 mi Calm Calm - N/A   Overcast
2:51 AM 50.0 °F 48.9 °F 96% 30.08 in 5.0 mi Calm Calm - N/A   Overcast
3:51 AM 50.0 °F 48.0 °F 93% 30.06 in 3.0 mi Calm Calm - N/A   Overcast
4:08 AM 48.2 °F 48.2 °F 100% 30.06 in 1.8 mi Calm Calm - N/A   Mostly Cloudy
4:43 AM 44.6 °F 44.6 °F 100% 30.05 in 0.5 mi Calm Calm - N/A Fog Fog
4:51 AM 44.1 °F 43.0 °F 96% 30.06 in 0.2 mi Calm Calm - N/A Fog Fog
5:07 AM 42.8 °F 42.8 °F 100% 30.05 in 0.2 mi Calm Calm - N/A Fog Fog
5:22 AM 44.6 °F 44.6 °F 100% 30.05 in 0.2 mi Calm Calm - N/A Fog Fog
5:31 AM 42.8 °F 42.8 °F 100% 30.05 in 0.2 mi Calm Calm - N/A Fog Fog
5:36 AM 44.6 °F 44.6 °F 100% 30.05 in 0.8 mi Calm Calm - N/A   Overcast
5:42 AM 44.6 °F 44.6 °F 100% 30.05 in 2.0 mi Calm Calm - N/A   Overcast
5:51 AM 45.0 °F 44.1 °F 97% 30.05 in 3.0 mi Calm Calm - N/A   Overcast
6:03 AM 44.6 °F 44.6 °F 100% 30.05 in 2.5 mi Calm Calm - N/A   Overcast
6:07 AM 44.6 °F 44.6 °F 100% 30.05 in 3.0 mi Calm Calm - N/A   Overcast
6:19 AM 46.4 °F 46.4 °F 100% 30.05 in 2.5 mi Calm Calm - N/A   Overcast
6:33 AM 46.4 °F 46.4 °F 100% 30.05 in 3.0 mi Calm Calm - N/A   Overcast
6:51 AM 46.9 °F 46.0 °F 97% 30.06 in 3.0 mi Calm Calm - N/A   Overcast
7:23 AM 48.2 °F 46.4 °F 93% 30.05 in 2.5 mi Calm Calm - N/A   Overcast
7:41 AM 48.2 °F 48.2 °F 100% 30.05 in 3.0 mi Calm Calm - N/A   Overcast
7:49 AM 48.2 °F 48.2 °F 100% 30.06 in 2.0 mi Calm Calm - N/A   Overcast
7:51 AM 48.0 °F 48.0 °F 100% 30.07 in 1.8 mi Calm Calm - N/A   Overcast
8:04 AM 48.2 °F 48.2 °F 100% 30.06 in 2.5 mi Calm Calm - N/A   Overcast
8:46 AM 50.0 °F 48.2 °F 94% 30.06 in 3.0 mi Calm Calm - N/A   Overcast
8:51 AM 50.0 °F 50.0 °F 100% 30.08 in 3.0 mi Calm Calm - N/A   Overcast
10:47 AM 57.2 °F 51.8 °F 82% 30.03 in 8.0 mi ENE 5.8 mph - N/A   Overcast
10:51 AM 57.9 °F 52.0 °F 81% 30.04 in 8.0 mi NE 5.8 mph - N/A   Overcast
11:51 AM 60.1 °F 52.0 °F 75% 30.03 in 9.0 mi Variable 3.5 mph - N/A   Overcast
12:51 PM 62.1 °F 52.0 °F 70% 29.99 in 10.0 mi Variable 3.5 mph - N/A   Mostly Cloudy
1:51 PM 64.0 °F 52.0 °F 65% 29.97 in 10.0 mi NE 4.6 mph - N/A   Overcast
2:51 PM 64.0 °F 51.1 °F 63% 29.95 in 10.0 mi SE 4.6 mph - N/A   Mostly Cloudy
3:51 PM 64.0 °F 51.1 °F 63% 29.95 in 10.0 mi SE 5.8 mph - N/A   Overcast
4:51 PM 63.0 °F 50.0 °F 63% 29.96 in 10.0 mi South 9.2 mph - N/A   Overcast
5:51 PM 61.0 °F 48.9 °F 64% 29.98 in 10.0 mi South 5.8 mph - N/A   Overcast
6:51 PM 59.0 °F 50.0 °F 72% 29.99 in 10.0 mi SE 3.5 mph - N/A   Overcast
7:51 PM 55.0 °F 50.0 °F 83% 29.99 in 10.0 mi Calm Calm - N/A   Clear
8:51 PM 54.0 °F 48.9 °F 83% 29.99 in 10.0 mi SSW 3.5 mph - N/A   Clear
9:51 PM 53.1 °F 48.9 °F 86% 29.99 in 10.0 mi Calm Calm - N/A   Clear
10:51 PM 48.9 °F 46.9 °F 93% 29.99 in 9.0 mi Calm Calm - N/A   Clear
11:51 PM 46.9 °F 46.0 °F 97% 29.99 in 7.0 mi Calm Calm - N/A   Clear